| time (UTC) | temp C | wind direction | speed KPH | gust KPH | rain 1hr cm | rain 24hr cm | rain mn cm | humidity % | barometer mb |
| 20260509064556 | 10 | 169 | 1.6 | 9.7 | 0.00 | 0.00 | 0.00 | 61 | 1003.9 |
| 20260509064054 | 10 | 129 | 1.6 | 14.5 | 0.00 | 0.00 | 0.00 | 60 | 1004.0 |
| 20260509063553 | 10 | 110 | 4.8 | 14.5 | 0.00 | 0.00 | 0.00 | 58 | 1004.1 |
| 20260509063054 | 11 | 197 | 4.8 | 16.1 | 0.00 | 0.00 | 0.00 | 56 | 1004.2 |
| 20260509062552 | 11 | 109 | 4.8 | 16.1 | 0.00 | 0.00 | 0.00 | 54 | 1004.3 |
| 20260509062052 | 11 | 210 | 4.8 | 12.9 | 0.00 | 0.00 | 0.00 | 53 | 1004.3 |
| 20260509061650 | 11 | 233 | 4.8 | 12.9 | 0.00 | 0.00 | 0.00 | 51 | 1004.3 |
| 20260509061049 | 11 | 169 | 4.8 | 16.1 | 0.00 | 0.00 | 0.00 | 48 | 1004.3 |
| 20260509060549 | 11 | 153 | 6.4 | 16.1 | 0.00 | 0.00 | 0.00 | 47 | 1004.3 |
| 20260509060047 | 11 | 179 | 8.0 | 12.9 | 0.00 | 0.00 | 0.00 | 46 | 1004.4 |
| 20260509055547 | 11 | 137 | 6.4 | 12.9 | 0.00 | 0.00 | 0.00 | 45 | 1004.5 |
| 20260509055048 | 11 | 177 | 3.2 | 9.7 | 0.00 | 0.00 | 0.00 | 44 | 1004.6 |
| 20260509054608 | 11 | 178 | 4.8 | 9.7 | 0.00 | 0.00 | 0.00 | 43 | 1004.6 |
| 20260509054045 | 11 | 181 | 4.8 | 12.9 | 0.00 | 0.00 | 0.00 | 43 | 1004.6 |
| 20260509053545 | 11 | 123 | 4.8 | 12.9 | 0.00 | 0.00 | 0.00 | 43 | 1004.7 |
| 20260509053138 | 10 | 162 | 4.8 | 11.3 | 0.00 | 0.00 | 0.00 | 42 | 1004.6 |
| 20260509052548 | 11 | 117 | 4.8 | 11.3 | 0.00 | 0.00 | 0.00 | 42 | 1004.6 |
| 20260509052044 | 11 | 119 | 4.8 | 9.7 | 0.00 | 0.00 | 0.00 | 42 | 1004.6 |
| 20260509051549 | 11 | 134 | 4.8 | 12.9 | 0.00 | 0.00 | 0.00 | 41 | 1004.6 |
| 20260509051043 | 11 | 147 | 4.8 | 12.9 | 0.00 | 0.00 | 0.00 | 41 | 1004.5 |
| 20260509050542 | 11 | 130 | 4.8 | 12.9 | 0.00 | 0.00 | 0.00 | 41 | 1004.6 |
| 20260509050047 | 11 | 119 | 6.4 | 16.1 | 0.00 | 0.00 | 0.00 | 40 | 1004.6 |
| 20260509045541 | 11 | 126 | 6.4 | 12.9 | 0.00 | 0.00 | 0.00 | 40 | 1004.7 |
| 20260509045039 | 11 | 151 | 6.4 | 16.1 | 0.00 | 0.00 | 0.00 | 40 | 1004.8 |
| 20260509044539 | 11 | 142 | 4.8 | 16.1 | 0.00 | 0.00 | 0.00 | 41 | 1004.8 |
| 20260509044039 | 10 | 180 | 4.8 | 11.3 | 0.00 | 0.00 | 0.00 | 41 | 1004.8 |
| 20260509043536 | 10 | 150 | 4.8 | 14.5 | 0.00 | 0.00 | 0.00 | 41 | 1004.8 |
| 20260509043036 | 10 | 142 | 6.4 | 14.5 | 0.00 | 0.00 | 0.00 | 41 | 1004.9 |
| 20260509042535 | 10 | 153 | 3.2 | 9.7 | 0.00 | 0.00 | 0.00 | 41 | 1004.9 |
| 20260509042036 | 10 | 146 | 4.8 | 9.7 | 0.00 | 0.00 | 0.00 | 41 | 1004.9 |
| 20260509041534 | 10 | 106 | 3.2 | 9.7 | 0.00 | 0.00 | 0.00 | 41 | 1005.0 |
| 20260509041035 | 10 | 139 | 3.2 | 6.4 | 0.00 | 0.00 | 0.00 | 41 | 1005.0 |
| 20260509040531 | 10 | 134 | 3.2 | 6.4 | 0.00 | 0.00 | 0.00 | 41 | 1005.1 |
| 20260509040031 | 10 | 143 | 1.6 | 6.4 | 0.00 | 0.00 | 0.00 | 41 | 1005.1 |
| 20260509035531 | 10 | 168 | 1.6 | 6.4 | 0.00 | 0.00 | 0.00 | 41 | 1005.2 |
| 20260509035034 | 10 | 129 | 0.0 | 4.8 | 0.00 | 0.00 | 0.00 | 41 | 1005.3 |
| 20260509034530 | 11 | 142 | 0.0 | 8.0 | 0.00 | 0.00 | 0.00 | 40 | 1005.4 |
| 20260509034031 | 11 | 126 | 1.6 | 8.0 | 0.00 | 0.00 | 0.00 | 40 | 1005.4 |
| 20260509033529 | 11 | 85 | 1.6 | 8.0 | 0.00 | 0.00 | 0.00 | 39 | 1005.4 |
| 20260509033030 | 11 | 134 | 1.6 | 6.4 | 0.00 | 0.00 | 0.00 | 40 | 1005.4 |
| 20260509032531 | 11 | 134 | 1.6 | 4.8 | 0.00 | 0.00 | 0.00 | 39 | 1005.5 |
| 20260509032028 | 11 | 133 | 0.0 | 4.8 | 0.00 | 0.00 | 0.00 | 40 | 1005.5 |
| 20260509031527 | 11 | 132 | 1.6 | 4.8 | 0.00 | 0.00 | 0.00 | 39 | 1005.6 |
| 20260509031027 | 11 | 248 | 0.0 | 6.4 | 0.00 | 0.00 | 0.00 | 39 | 1005.7 |
| 20260509030526 | 11 | 115 | 1.6 | 4.8 | 0.00 | 0.00 | 0.00 | 39 | 1005.7 |
| 20260509030033 | 11 | 131 | 0.0 | 3.2 | 0.00 | 0.00 | 0.00 | 39 | 1005.8 |
| 20260509025526 | 11 | 153 | 0.0 | 3.2 | 0.00 | 0.00 | 0.00 | 40 | 1005.8 |
| 20260509025025 | 11 | 154 | 0.0 | 3.2 | 0.00 | 0.00 | 0.00 | 39 | 1005.9 |
| 20260509024525 | 11 | 120 | 0.0 | 3.2 | 0.00 | 0.00 | 0.00 | 39 | 1005.9 |
| 20260509024025 | 11 | 153 | 0.0 | 1.6 | 0.00 | 0.00 | 0.00 | 39 | 1006.0 |
| 20260509023524 | 11 | 141 | 0.0 | 1.6 | 0.00 | 0.00 | 0.00 | 39 | 1006.1 |
| 20260509023030 | 11 | 144 | 0.0 | 4.8 | 0.00 | 0.00 | 0.00 | 40 | 1006.1 |
| 20260509022527 | 11 | 154 | 0.0 | 4.8 | 0.00 | 0.00 | 0.00 | 39 | 1006.1 |
| 20260509022027 | 11 | 136 | 0.0 | 4.8 | 0.00 | 0.00 | 0.00 | 39 | 1006.1 |
| 20260509021524 | 11 | 147 | 0.0 | 4.8 | 0.00 | 0.00 | 0.00 | 39 | 1006.1 |
| 20260509021023 | 11 | 142 | 0.0 | 4.8 | 0.00 | 0.00 | 0.00 | 40 | 1006.0 |
| 20260509020523 | 11 | 108 | 1.6 | 4.8 | 0.00 | 0.00 | 0.00 | 40 | 1006.0 |
| 20260509020024 | 11 | 154 | 0.0 | 4.8 | 0.00 | 0.00 | 0.00 | 41 | 1005.9 |
| 20260509015526 | 11 | 128 | 0.0 | 1.6 | 0.00 | 0.00 | 0.00 | 41 | 1005.9 |
| 20260509015025 | 11 | 128 | 0.0 | 1.6 | 0.00 | 0.00 | 0.00 | 41 | 1005.9 |
| 20260509014523 | 11 | 128 | 0.0 | 1.6 | 0.00 | 0.00 | 0.00 | 39 | 1005.9 |
| 20260509014023 | 12 | 129 | 0.0 | 1.6 | 0.00 | 0.00 | 0.00 | 39 | 1005.9 |
| 20260509013525 | 12 | 129 | 0.0 | 1.6 | 0.00 | 0.00 | 0.00 | 37 | 1005.9 |
| 20260509013027 | 12 | 129 | 0.0 | 1.6 | 0.00 | 0.00 | 0.00 | 38 | 1005.9 |
| 20260509012522 | 12 | 129 | 0.0 | 1.6 | 0.00 | 0.00 | 0.00 | 36 | 1005.8 |
| 20260509012026 | 12 | 129 | 0.0 | 1.6 | 0.00 | 0.00 | 0.00 | 37 | 1005.8 |
| 20260509011522 | 13 | 129 | 0.0 | 0.0 | 0.00 | 0.00 | 0.00 | 36 | 1005.9 |
| 20260509011023 | 13 | 129 | 0.0 | 1.6 | 0.00 | 0.00 | 0.00 | 35 | 1005.8 |
| 20260509010522 | 13 | 129 | 0.0 | 3.2 | 0.00 | 0.00 | 0.00 | 33 | 1005.9 |
| 20260509010021 | 13 | 124 | 0.0 | 1.6 | 0.00 | 0.00 | 0.00 | 32 | 1005.9 |
| 20260509005526 | 14 | 153 | 0.0 | 3.2 | 0.00 | 0.00 | 0.00 | 31 | 1005.9 |
| 20260509005021 | 14 | 153 | 0.0 | 3.2 | 0.00 | 0.00 | 0.00 | 30 | 1005.9 |
| 20260509004526 | 15 | 125 | 0.0 | 3.2 | 0.00 | 0.00 | 0.00 | 30 | 1005.9 |
| 20260509004020 | 15 | 157 | 0.0 | 4.8 | 0.00 | 0.00 | 0.00 | 29 | 1005.9 |
| 20260509003520 | 15 | 158 | 1.6 | 6.4 | 0.00 | 0.00 | 0.00 | 28 | 1005.9 |
| 20260509003037 | 15 | 145 | 3.2 | 6.4 | 0.00 | 0.00 | 0.00 | 28 | 1006.0 |
| 20260509002519 | 16 | 141 | 1.6 | 8.0 | 0.00 | 0.00 | 0.00 | 28 | 1006.0 |
| 20260509002018 | 16 | 237 | 3.2 | 8.0 | 0.00 | 0.00 | 0.00 | 27 | 1006.1 |
| 20260509001517 | 16 | 228 | 1.6 | 6.4 | 0.00 | 0.00 | 0.00 | 27 | 1006.2 |
| 20260509001017 | 16 | 212 | 3.2 | 8.0 | 0.00 | 0.00 | 0.00 | 27 | 1006.2 |
| 20260509000521 | 16 | 215 | 3.2 | 8.0 | 0.00 | 0.00 | 0.00 | 27 | 1006.2 |
| 20260509000017 | 16 | 204 | 3.2 | 8.0 | 0.00 | 0.00 | 0.00 | 28 | 1006.2 |
| 20260508235517 | 16 | 243 | 3.2 | 11.3 | 0.00 | 0.00 | 0.00 | 27 | 1006.3 |
| 20260508235016 | 16 | 213 | 4.8 | 11.3 | 0.00 | 0.00 | 0.00 | 29 | 1006.4 |
| 20260508234514 | 16 | 245 | 3.2 | 11.3 | 0.00 | 0.00 | 0.00 | 29 | 1006.5 |
| 20260508234014 | 16 | 276 | 3.2 | 9.7 | 0.00 | 0.00 | 0.00 | 28 | 1006.6 |
| 20260508233515 | 16 | 231 | 1.6 | 14.5 | 0.00 | 0.00 | 0.00 | 29 | 1006.5 |
| 20260508233014 | 16 | 269 | 6.4 | 14.5 | 0.00 | 0.00 | 0.00 | 28 | 1006.6 |
| 20260508232514 | 16 | 231 | 4.8 | 12.9 | 0.00 | 0.00 | 0.00 | 28 | 1006.6 |
| 20260508232013 | 16 | 244 | 6.4 | 12.9 | 0.00 | 0.00 | 0.00 | 28 | 1006.7 |
| 20260508231513 | 16 | 256 | 3.2 | 12.9 | 0.00 | 0.00 | 0.00 | 28 | 1006.7 |
| 20260508231013 | 16 | 224 | 6.4 | 14.5 | 0.00 | 0.00 | 0.00 | 28 | 1006.7 |
| 20260508230512 | 17 | 273 | 4.8 | 19.3 | 0.00 | 0.00 | 0.00 | 28 | 1006.8 |
| 20260508230012 | 17 | 218 | 3.2 | 19.3 | 0.00 | 0.00 | 0.00 | 29 | 1006.7 |
| 20260508225517 | 17 | 257 | 4.8 | 14.5 | 0.00 | 0.00 | 0.00 | 28 | 1006.6 |
| 20260508225012 | 17 | 252 | 4.8 | 14.5 | 0.00 | 0.00 | 0.00 | 29 | 1006.7 |
| 20260508224512 | 17 | 256 | 4.8 | 19.3 | 0.00 | 0.00 | 0.00 | 28 | 1006.7 |
| 20260508224011 | 17 | 232 | 6.4 | 19.3 | 0.00 | 0.00 | 0.00 | 28 | 1006.6 |
| 20260508223514 | 17 | 268 | 6.4 | 14.5 | 0.00 | 0.00 | 0.00 | 28 | 1006.6 |
| 20260508223016 | 17 | 231 | 6.4 | 19.3 | 0.00 | 0.00 | 0.00 | 28 | 1006.7 |
| 20260508222510 | 17 | 279 | 8.0 | 19.3 | 0.00 | 0.00 | 0.00 | 29 | 1006.7 |
| 20260508222010 | 17 | 243 | 3.2 | 14.5 | 0.00 | 0.00 | 0.00 | 30 | 1006.8 |
| 20260508221510 | 17 | 248 | 4.8 | 14.5 | 0.00 | 0.00 | 0.00 | 30 | 1006.8 |
| 20260508221010 | 17 | 249 | 4.8 | 24.1 | 0.00 | 0.00 | 0.00 | 29 | 1006.7 |
| 20260508220514 | 17 | 266 | 11.3 | 24.1 | 0.00 | 0.00 | 0.00 | 28 | 1006.8 |
| 20260508220015 | 17 | 251 | 8.0 | 17.7 | 0.00 | 0.00 | 0.00 | 28 | 1006.7 |
| 20260508215510 | 17 | 280 | 8.0 | 17.7 | 0.00 | 0.00 | 0.00 | 30 | 1006.7 |
| 20260508215009 | 17 | 266 | 4.8 | 16.1 | 0.00 | 0.00 | 0.00 | 30 | 1006.7 |
| 20260508214509 | 17 | 214 | 6.4 | 17.7 | 0.00 | 0.00 | 0.00 | 29 | 1006.8 |
| 20260508214009 | 17 | 283 | 11.3 | 17.7 | 0.00 | 0.00 | 0.00 | 27 | 1006.8 |
| 20260508213507 | 17 | 208 | 9.7 | 17.7 | 0.00 | 0.00 | 0.00 | 29 | 1006.7 |
| 20260508213007 | 17 | 255 | 1.6 | 9.7 | 0.00 | 0.00 | 0.00 | 29 | 1006.8 |
| 20260508212509 | 17 | 302 | 4.8 | 17.7 | 0.00 | 0.00 | 0.00 | 28 | 1006.9 |
| 20260508212010 | 17 | 265 | 8.0 | 19.3 | 0.00 | 0.00 | 0.00 | 27 | 1006.9 |
| 20260508211505 | 17 | 334 | 3.2 | 19.3 | 0.00 | 0.00 | 0.00 | 31 | 1007.0 |
| 20260508211005 | 17 | 296 | 1.6 | 17.7 | 0.00 | 0.00 | 0.00 | 30 | 1006.9 |
| 20260508210505 | 17 | 276 | 9.7 | 17.7 | 0.00 | 0.00 | 0.00 | 28 | 1006.9 |
| 20260508210004 | 17 | 205 | 6.4 | 14.5 | 0.00 | 0.00 | 0.00 | 29 | 1007.0 |
| 20260508205503 | 17 | 262 | 4.8 | 16.1 | 0.00 | 0.00 | 0.00 | 29 | 1007.1 |
| 20260508205002 | 16 | 203 | 9.7 | 22.5 | 0.00 | 0.00 | 0.00 | 30 | 1007.1 |
| 20260508204506 | 16 | 269 | 14.5 | 22.5 | 0.00 | 0.00 | 0.00 | 29 | 1007.3 |
| 20260508204002 | 16 | 288 | 9.7 | 19.3 | 0.00 | 0.00 | 0.00 | 29 | 1007.2 |
| 20260508203503 | 16 | 255 | 6.4 | 14.5 | 0.00 | 0.00 | 0.00 | 30 | 1007.2 |
| 20260508203002 | 16 | 295 | 6.4 | 14.5 | 0.00 | 0.00 | 0.00 | 29 | 1007.3 |
| 20260508202601 | 17 | 242 | 8.0 | 19.3 | 0.00 | 0.00 | 0.00 | 29 | 1007.4 |
| 20260508202001 | 16 | 227 | 11.3 | 22.5 | 0.00 | 0.00 | 0.00 | 29 | 1007.5 |
| 20260508201613 | 16 | 252 | 8.0 | 22.5 | 0.00 | 0.00 | 0.00 | 30 | 1007.6 |
| 20260508201059 | 17 | 249 | 11.3 | 20.9 | 0.00 | 0.00 | 0.00 | 30 | 1007.7 |
| 20260508200558 | 17 | 246 | 9.7 | 19.3 | 0.00 | 0.00 | 0.00 | 30 | 1007.7 |
| 20260508200107 | 16 | 270 | 8.0 | 22.5 | 0.00 | 0.00 | 0.00 | 29 | 1007.8 |
| 20260508195557 | 16 | 226 | 8.0 | 24.1 | 0.00 | 0.00 | 0.00 | 31 | 1007.8 |
| 20260508195056 | 16 | 251 | 14.5 | 24.1 | 0.00 | 0.00 | 0.00 | 29 | 1007.9 |
| 20260508194600 | 16 | 258 | 11.3 | 20.9 | 0.00 | 0.00 | 0.00 | 31 | 1007.9 |
| 20260508194102 | 17 | 290 | 6.4 | 22.5 | 0.00 | 0.00 | 0.00 | 30 | 1007.9 |
| 20260508193554 | 16 | 159 | 9.7 | 20.9 | 0.00 | 0.00 | 0.00 | 31 | 1008.0 |
| 20260508193104 | 16 | 227 | 8.0 | 16.1 | 0.00 | 0.00 | 0.00 | 30 | 1008.1 |
| 20260508192555 | 16 | 206 | 1.6 | 17.7 | 0.00 | 0.00 | 0.00 | 30 | 1008.0 |
| 20260508192056 | 16 | 321 | 9.7 | 17.7 | 0.00 | 0.00 | 0.00 | 28 | 1008.1 |
| 20260508191554 | 16 | 227 | 8.0 | 20.9 | 0.00 | 0.00 | 0.00 | 29 | 1008.1 |
| 20260508191053 | 16 | 234 | 9.7 | 20.9 | 0.00 | 0.00 | 0.00 | 27 | 1008.1 |
| 20260508190552 | 16 | 203 | 4.8 | 22.5 | 0.00 | 0.00 | 0.00 | 29 | 1008.1 |
| 20260508190056 | 17 | 226 | 6.4 | 16.1 | 0.00 | 0.00 | 0.00 | 28 | 1008.2 |
| 20260508185553 | 17 | 217 | 3.2 | 22.5 | 0.00 | 0.00 | 0.00 | 28 | 1008.3 |
| 20260508185053 | 17 | 207 | 8.0 | 22.5 | 0.00 | 0.00 | 0.00 | 27 | 1008.3 |
| 20260508184601 | 17 | 227 | 6.4 | 17.7 | 0.00 | 0.00 | 0.00 | 28 | 1008.4 |
| 20260508184050 | 16 | 236 | 4.8 | 17.7 | 0.00 | 0.00 | 0.00 | 29 | 1008.4 |
| 20260508183550 | 16 | 288 | 9.7 | 20.9 | 0.00 | 0.00 | 0.00 | 28 | 1008.5 |
| 20260508183102 | 16 | 255 | 8.0 | 25.7 | 0.00 | 0.00 | 0.00 | 29 | 1008.5 |
| 20260508182550 | 17 | 232 | 8.0 | 25.7 | 0.00 | 0.00 | 0.00 | 29 | 1008.5 |
| 20260508182048 | 17 | 205 | 3.2 | 17.7 | 0.00 | 0.00 | 0.00 | 30 | 1008.5 |
| 20260508181547 | 16 | 252 | 11.3 | 17.7 | 0.00 | 0.00 | 0.00 | 28 | 1008.7 |
| 20260508181046 | 16 | 66 | 1.6 | 17.7 | 0.00 | 0.00 | 0.00 | 28 | 1008.7 |
| 20260508180546 | 16 | 254 | 9.7 | 24.1 | 0.00 | 0.00 | 0.00 | 29 | 1008.7 |
| 20260508180046 | 16 | 236 | 9.7 | 24.1 | 0.00 | 0.00 | 0.00 | 27 | 1008.8 |
| 20260508175546 | 16 | 141 | 9.7 | 20.9 | 0.00 | 0.00 | 0.00 | 27 | 1008.8 |
| 20260508175045 | 17 | 221 | 6.4 | 20.9 | 0.00 | 0.00 | 0.00 | 28 | 1008.9 |
| 20260508174558 | 16 | 238 | 1.6 | 16.1 | 0.00 | 0.00 | 0.00 | 32 | 1009.0 |
| 20260508174043 | 16 | 195 | 4.8 | 17.7 | 0.00 | 0.00 | 0.00 | 31 | 1009.1 |
| 20260508173543 | 16 | 231 | 6.4 | 17.7 | 0.00 | 0.00 | 0.00 | 31 | 1009.2 |
| 20260508173042 | 16 | 108 | 1.6 | 19.3 | 0.00 | 0.00 | 0.00 | 31 | 1009.2 |
| 20260508172542 | 16 | 203 | 9.7 | 19.3 | 0.00 | 0.00 | 0.00 | 30 | 1009.3 |
| 20260508172040 | 16 | 247 | 6.4 | 19.3 | 0.00 | 0.00 | 0.00 | 33 | 1009.4 |
| 20260508171538 | 16 | 248 | 8.0 | 19.3 | 0.00 | 0.00 | 0.00 | 32 | 1009.4 |
| 20260508171042 | 15 | 270 | 9.7 | 19.3 | 0.00 | 0.00 | 0.00 | 34 | 1009.6 |
| 20260508170537 | 15 | 229 | 8.0 | 25.7 | 0.00 | 0.00 | 0.00 | 35 | 1009.7 |
| 20260508170038 | 15 | 317 | 9.7 | 25.7 | 0.00 | 0.00 | 0.00 | 34 | 1009.7 |
| 20260508165535 | 15 | 248 | 9.7 | 20.9 | 0.00 | 0.00 | 0.00 | 32 | 1009.9 |
| 20260508165035 | 16 | 248 | 4.8 | 19.3 | 0.00 | 0.00 | 0.00 | 37 | 1009.9 |
| 20260508164541 | 15 | 235 | 8.0 | 17.7 | 0.00 | 0.00 | 0.00 | 34 | 1010.1 |
| 20260508164033 | 15 | 252 | 8.0 | 17.7 | 0.00 | 0.00 | 0.00 | 35 | 1010.2 |
| 20260508163532 | 15 | 144 | 3.2 | 12.9 | 0.00 | 0.00 | 0.00 | 34 | 1010.2 |
| 20260508163055 | 15 | 251 | 3.2 | 20.9 | 0.00 | 0.00 | 0.00 | 32 | 1010.3 |
| 20260508162532 | 15 | 272 | 6.4 | 19.3 | 0.00 | 0.00 | 0.00 | 31 | 1010.4 |
| 20260508162032 | 15 | 270 | 3.2 | 14.5 | 0.00 | 0.00 | 0.00 | 35 | 1010.3 |
| 20260508161531 | 15 | 158 | 4.8 | 14.5 | 0.00 | 0.00 | 0.00 | 35 | 1010.3 |
| 20260508161030 | 15 | 225 | 3.2 | 17.7 | 0.00 | 0.00 | 0.00 | 35 | 1010.4 |
| 20260508160533 | 15 | 223 | 8.0 | 17.7 | 0.00 | 0.00 | 0.00 | 37 | 1010.4 |
| 20260508160030 | 14 | 236 | 4.8 | 16.1 | 0.00 | 0.00 | 0.00 | 38 | 1010.4 |
| 20260508155529 | 15 | 274 | 6.4 | 12.9 | 0.00 | 0.00 | 0.00 | 38 | 1010.4 |
| 20260508155028 | 15 | 288 | 6.4 | 11.3 | 0.00 | 0.00 | 0.00 | 38 | 1010.4 |
| 20260508154528 | 15 | 229 | 3.2 | 12.9 | 0.00 | 0.00 | 0.00 | 38 | 1010.3 |
| 20260508154026 | 14 | 104 | 6.4 | 12.9 | 0.00 | 0.00 | 0.00 | 38 | 1010.4 |
| 20260508153526 | 14 | 291 | 6.4 | 14.5 | 0.00 | 0.00 | 0.00 | 39 | 1010.5 |
| 20260508153127 | 14 | 271 | 8.0 | 19.3 | 0.00 | 0.00 | 0.00 | 45 | 1010.4 |
| 20260508152524 | 13 | 258 | 8.0 | 19.3 | 0.00 | 0.00 | 0.00 | 44 | 1010.5 |
| 20260508152024 | 14 | 263 | 4.8 | 17.7 | 0.00 | 0.00 | 0.00 | 45 | 1010.5 |
| 20260508151531 | 14 | 188 | 4.8 | 14.5 | 0.00 | 0.00 | 0.00 | 44 | 1010.5 |
| 20260508151029 | 13 | 256 | 3.2 | 17.7 | 0.00 | 0.00 | 0.00 | 47 | 1010.5 |
| 20260508150524 | 13 | 239 | 8.0 | 17.7 | 0.00 | 0.00 | 0.00 | 48 | 1010.7 |
| 20260508150027 | 13 | 156 | 4.8 | 17.7 | 0.00 | 0.00 | 0.00 | 49 | 1010.8 |
| 20260508145521 | 13 | 197 | 3.2 | 16.1 | 0.00 | 0.00 | 0.00 | 51 | 1010.8 |
| 20260508145020 | 13 | 240 | 4.8 | 16.1 | 0.00 | 0.00 | 0.00 | 47 | 1010.9 |
| 20260508144520 | 13 | 238 | 4.8 | 11.3 | 0.00 | 0.00 | 0.00 | 49 | 1010.8 |
| 20260508144020 | 13 | 214 | 3.2 | 14.5 | 0.00 | 0.00 | 0.00 | 51 | 1010.8 |
| 20260508143519 | 13 | 196 | 3.2 | 14.5 | 0.00 | 0.00 | 0.00 | 51 | 1010.8 |
| 20260508143019 | 13 | 272 | 6.4 | 12.9 | 0.00 | 0.00 | 0.00 | 48 | 1010.9 |
| 20260508142518 | 13 | 237 | 3.2 | 9.7 | 0.00 | 0.00 | 0.00 | 57 | 1010.9 |
| 20260508142017 | 13 | 186 | 1.6 | 11.3 | 0.00 | 0.00 | 0.00 | 61 | 1010.9 |
| 20260508141517 | 12 | 221 | 4.8 | 9.7 | 0.00 | 0.00 | 0.00 | 60 | 1011.0 |
| 20260508141015 | 12 | 269 | 6.4 | 11.3 | 0.00 | 0.00 | 0.00 | 60 | 1011.0 |
| 20260508140517 | 12 | 247 | 6.4 | 11.3 | 0.00 | 0.00 | 0.00 | 59 | 1011.0 |
| 20260508140014 | 12 | 226 | 3.2 | 9.7 | 0.00 | 0.00 | 0.00 | 61 | 1011.1 |
| 20260508135515 | 12 | 222 | 4.8 | 9.7 | 0.00 | 0.00 | 0.00 | 62 | 1011.0 |
| 20260508135016 | 12 | 238 | 6.4 | 9.7 | 0.00 | 0.00 | 0.00 | 62 | 1011.1 |
| 20260508134515 | 12 | 243 | 1.6 | 9.7 | 0.00 | 0.00 | 0.00 | 64 | 1011.1 |
| 20260508134011 | 11 | 90 | 3.2 | 9.7 | 0.00 | 0.00 | 0.00 | 64 | 1011.1 |
| 20260508133518 | 11 | 106 | 3.2 | 8.0 | 0.00 | 0.00 | 0.00 | 64 | 1011.1 |
| 20260508133010 | 11 | 141 | 3.2 | 8.0 | 0.00 | 0.00 | 0.00 | 64 | 1011.2 |
| 20260508132509 | 11 | 255 | 3.2 | 8.0 | 0.00 | 0.00 | 0.00 | 65 | 1011.2 |
| 20260508132008 | 11 | 233 | 3.2 | 6.4 | 0.00 | 0.00 | 0.00 | 66 | 1011.2 |
| 20260508131507 | 11 | 245 | 1.6 | 8.0 | 0.00 | 0.00 | 0.00 | 68 | 1011.2 |
| 20260508131007 | 10 | 231 | 3.2 | 8.0 | 0.00 | 0.00 | 0.00 | 67 | 1011.3 |
| 20260508130506 | 10 | 248 | 1.6 | 4.8 | 0.00 | 0.00 | 0.00 | 67 | 1011.2 |
| 20260508130005 | 10 | 254 | 1.6 | 4.8 | 0.00 | 0.00 | 0.00 | 67 | 1011.2 |
| 20260508125506 | 10 | 186 | 0.0 | 6.4 | 0.00 | 0.00 | 0.00 | 70 | 1011.3 |
| 20260508125004 | 10 | 226 | 3.2 | 6.4 | 0.00 | 0.00 | 0.00 | 69 | 1011.4 |
| 20260508124505 | 10 | 245 | 3.2 | 6.4 | 0.00 | 0.00 | 0.00 | 69 | 1011.5 |
| 20260508124003 | 10 | 152 | 0.0 | 3.2 | 0.00 | 0.00 | 0.00 | 69 | 1011.4 |
| 20260508123502 | 10 | 231 | 0.0 | 3.2 | 0.00 | 0.00 | 0.00 | 69 | 1011.5 |
| 20260508123101 | 9 | 178 | 0.0 | 3.2 | 0.00 | 0.00 | 0.00 | 71 | 1011.5 |
| 20260508122600 | 8 | 189 | 0.0 | 1.6 | 0.00 | 0.00 | 0.00 | 71 | 1011.4 |
| 20260508122058 | 8 | 245 | 0.0 | 0.0 | 0.00 | 0.00 | 0.00 | 72 | 1011.3 |
| 20260508121557 | 8 | 169 | 0.0 | 1.6 | 0.00 | 0.00 | 0.00 | 72 | 1011.3 |
| 20260508121056 | 8 | 239 | 0.0 | 1.6 | 0.00 | 0.00 | 0.00 | 72 | 1011.2 |
| 20260508120554 | 7 | 154 | 0.0 | 0.0 | 0.00 | 0.00 | 0.00 | 74 | 1011.3 |
| 20260508120054 | 7 | 149 | 0.0 | 0.0 | 0.00 | 0.00 | 0.00 | 75 | 1011.1 |
| 20260508115552 | 6 | 152 | 0.0 | 1.6 | 0.00 | 0.00 | 0.00 | 78 | 1011.1 |
| 20260508115050 | 6 | 141 | 0.0 | 0.0 | 0.00 | 0.00 | 0.00 | 79 | 1011.1 |
| 20260508114548 | 5 | 149 | 0.0 | 0.0 | 0.00 | 0.00 | 0.00 | 79 | 1011.0 |
| 20260508114048 | 5 | 150 | 0.0 | 0.0 | 0.00 | 0.00 | 0.00 | 80 | 1011.0 |
| 20260508113547 | 5 | 152 | 0.0 | 0.0 | 0.00 | 0.00 | 0.00 | 81 | 1011.1 |
| 20260508113053 | 5 | 148 | 0.0 | 0.0 | 0.00 | 0.00 | 0.00 | 85 | 1010.9 |
| 20260508112545 | 3 | 148 | 0.0 | 0.0 | 0.00 | 0.00 | 0.00 | 85 | 1010.9 |
| 20260508112045 | 3 | 148 | 0.0 | 0.0 | 0.00 | 0.00 | 0.00 | 87 | 1010.9 |
| 20260508111544 | 2 | 148 | 0.0 | 0.0 | 0.00 | 0.00 | 0.00 | 89 | 1010.9 |
| 20260508111044 | 2 | 148 | 0.0 | 0.0 | 0.00 | 0.00 | 0.00 | 89 | 1010.9 |
| 20260508110543 | 2 | 148 | 0.0 | 0.0 | 0.00 | 0.00 | 0.00 | 92 | 1010.9 |
| 20260508110059 | 2 | 148 | 0.0 | 0.0 | 0.00 | 0.00 | 0.00 | 93 | 1010.9 |
| 20260508105544 | 1 | 148 | 0.0 | 0.0 | 0.00 | 0.00 | 0.00 | 94 | 1010.9 |
| 20260508105043 | 1 | 148 | 0.0 | 0.0 | 0.00 | 0.00 | 0.00 | 93 | 1010.8 |
| 20260508104546 | 0 | 148 | 0.0 | 0.0 | 0.00 | 0.00 | 0.00 | 92 | 1010.8 |
| 20260508104043 | 0 | 148 | 0.0 | 0.0 | 0.00 | 0.00 | 0.00 | 92 | 1010.6 |
| 20260508103542 | 0 | 148 | 0.0 | 0.0 | 0.00 | 0.00 | 0.00 | 92 | 1010.6 |
| 20260508103043 | 0 | 148 | 0.0 | 0.0 | 0.00 | 0.00 | 0.00 | 92 | 1010.6 |
| 20260508102542 | 0 | 148 | 0.0 | 0.0 | 0.00 | 0.00 | 0.00 | 91 | 1010.7 |
| 20260508102041 | 0 | 148 | 0.0 | 0.0 | 0.00 | 0.00 | 0.00 | 91 | 1010.6 |
| 20260508101550 | 0 | 148 | 0.0 | 0.0 | 0.00 | 0.00 | 0.00 | 91 | 1010.7 |
| 20260508101038 | 1 | 148 | 0.0 | 0.0 | 0.00 | 0.00 | 0.00 | 91 | 1010.7 |
| 20260508100538 | 1 | 148 | 0.0 | 0.0 | 0.00 | 0.00 | 0.00 | 91 | 1010.8 |
| 20260508100039 | 1 | 148 | 0.0 | 0.0 | 0.00 | 0.00 | 0.00 | 91 | 1010.8 |
| 20260508095540 | 1 | 148 | 0.0 | 0.0 | 0.00 | 0.00 | 0.00 | 91 | 1010.8 |
| 20260508095036 | 1 | 148 | 0.0 | 0.0 | 0.00 | 0.00 | 0.00 | 90 | 1010.8 |
| 20260508094549 | 1 | 148 | 0.0 | 0.0 | 0.00 | 0.00 | 0.00 | 91 | 1010.7 |
| 20260508094035 | 1 | 148 | 0.0 | 0.0 | 0.00 | 0.00 | 0.00 | 90 | 1010.8 |
| 20260508093536 | 1 | 148 | 0.0 | 0.0 | 0.00 | 0.00 | 0.00 | 90 | 1010.8 |
| 20260508093050 | 1 | 148 | 0.0 | 0.0 | 0.00 | 0.00 | 0.00 | 90 | 1010.9 |
| 20260508092535 | 1 | 148 | 0.0 | 0.0 | 0.00 | 0.00 | 0.00 | 90 | 1010.9 |
| 20260508092034 | 1 | 148 | 0.0 | 0.0 | 0.00 | 0.00 | 0.00 | 91 | 1010.9 |
| 20260508091534 | 1 | 148 | 0.0 | 0.0 | 0.00 | 0.00 | 0.00 | 90 | 1011.0 |
| 20260508091033 | 1 | 148 | 0.0 | 0.0 | 0.00 | 0.00 | 0.00 | 90 | 1010.9 |
| 20260508090534 | 1 | 148 | 0.0 | 0.0 | 0.00 | 0.00 | 0.00 | 89 | 1010.9 |
| 20260508090049 | 1 | 148 | 0.0 | 0.0 | 0.00 | 0.00 | 0.00 | 90 | 1010.9 |
| 20260508085531 | 1 | 148 | 0.0 | 0.0 | 0.00 | 0.00 | 0.00 | 89 | 1010.9 |
| 20260508085030 | 1 | 148 | 0.0 | 0.0 | 0.00 | 0.00 | 0.00 | 89 | 1010.9 |
| 20260508084530 | 1 | 148 | 0.0 | 0.0 | 0.00 | 0.00 | 0.00 | 88 | 1010.9 |
| 20260508084029 | 2 | 148 | 0.0 | 0.0 | 0.00 | 0.00 | 0.00 | 88 | 1010.9 |
| 20260508083528 | 2 | 148 | 0.0 | 0.0 | 0.00 | 0.00 | 0.00 | 88 | 1010.9 |
| 20260508083030 | 2 | 148 | 0.0 | 0.0 | 0.00 | 0.00 | 0.00 | 88 | 1011.0 |
| 20260508082530 | 2 | 148 | 0.0 | 0.0 | 0.00 | 0.00 | 0.00 | 87 | 1011.0 |
| 20260508082028 | 2 | 148 | 0.0 | 0.0 | 0.00 | 0.00 | 0.00 | 87 | 1011.0 |
| 20260508081527 | 2 | 148 | 0.0 | 0.0 | 0.00 | 0.00 | 0.00 | 86 | 1011.0 |
| 20260508081026 | 2 | 148 | 0.0 | 0.0 | 0.00 | 0.00 | 0.00 | 86 | 1011.0 |
| 20260508080524 | 2 | 148 | 0.0 | 0.0 | 0.00 | 0.00 | 0.00 | 85 | 1011.0 |
| 20260508080034 | 2 | 148 | 0.0 | 0.0 | 0.00 | 0.00 | 0.00 | 85 | 1011.1 |
| 20260508075524 | 3 | 148 | 0.0 | 0.0 | 0.00 | 0.00 | 0.00 | 84 | 1010.9 |
| 20260508075027 | 3 | 148 | 0.0 | 0.0 | 0.00 | 0.00 | 0.00 | 82 | 1010.9 |
| 20260508074533 | 3 | 149 | 0.0 | 0.0 | 0.00 | 0.00 | 0.00 | 81 | 1010.9 |
| 20260508074023 | 3 | 150 | 0.0 | 1.6 | 0.00 | 0.00 | 0.00 | 81 | 1011.0 |
| 20260508073522 | 3 | 150 | 0.0 | 3.2 | 0.00 | 0.00 | 0.00 | 81 | 1011.0 |
| 20260508073022 | 3 | 150 | 0.0 | 3.2 | 0.00 | 0.00 | 0.00 | 81 | 1011.1 |
| 20260508072521 | 3 | 321 | 0.0 | 0.0 | 0.00 | 0.00 | 0.00 | 82 | 1011.1 |
| 20260508072020 | 3 | 321 | 0.0 | 1.6 | 0.00 | 0.00 | 0.00 | 82 | 1011.1 |
| 20260508071525 | 3 | 321 | 0.0 | 3.2 | 0.00 | 0.00 | 0.00 | 82 | 1011.3 |
| 20260508071019 | 3 | 321 | 0.0 | 0.0 | 0.00 | 0.00 | 0.00 | 83 | 1011.3 |
| 20260508070519 | 3 | 321 | 0.0 | 0.0 | 0.00 | 0.00 | 0.00 | 83 | 1011.4 |
| 20260508070019 | 3 | 321 | 0.0 | 0.0 | 0.00 | 0.00 | 0.00 | 82 | 1011.3 |
| 20260508065519 | 3 | 321 | 0.0 | 3.2 | 0.00 | 0.00 | 0.00 | 82 | 1011.5 |
| 20260508065018 | 3 | 321 | 0.0 | 3.2 | 0.00 | 0.00 | 0.00 | 84 | 1011.3 |